カタログに戻る

STARLINK-11458

運用中通信VLEO
NORAD 62982·PAYLOAD·🇺🇸 United States

打ち上げ Feb 11, 2025 から Cape Canaveral Space Force Station

Loading…

次のパス (今後24時間)

TLE

最新Source: CelesTrak SupGP

元期: Sep 14, 2026, 22:50 UTC

1 62982C 25031B   26257.95187500 -.00023252  00000+0 -18064-3 0  2579
2 62982  43.0004 300.5264 0001528 260.3898 322.0434 15.70844545    14

AllMySatでSTARLINK-11458をリアルタイム追跡

Download on the App Store